Location: Bellevue
(48.8211°N, 2.2262°E)
Time: 07:30:31
(UTC+00:00)

Daily predictions for brighter satellites

Satellite Brightness Start Highest point End
(mag) Time Altitude Azimuth Time Altitude Azimuth Time Altitude Azimuth
Cosmos 2278 Rocket 2.4 16:22:12 10° NNW 16:27:54 84° WSW 16:33:33 10° SSE
Cosmos 2360 Rocket 3.7 16:24:14 10° WSW 16:29:15 31° NW 16:34:19 10° NNE
ATLAS 2AS CENTAUR R/B 3.8 16:24:42 10° WSW 16:32:26 48° NW 16:40:04 10° NE
YAOGAN 6 4.5 16:31:45 10° E 16:32:57 11° ENE 16:34:09 10° NE
Cosmos 1867 4.2 16:28:24 10° NNW 16:33:25 35° NE 16:38:23 10° ESE
Cosmos 2242 Rocket 4.4 16:30:41 10° SSE 16:34:48 34° E 16:38:57 10° NNE
IRS-1C Rocket 4.3 16:30:09 10° SE 16:35:13 49° ENE 16:40:17 10° N
Feng Yun 1-1 Rocket 4.4 16:32:23 10° SE 16:37:32 49° ENE 16:42:45 10° N
Cosmos 1536 3.0 16:33:58 10° N 16:37:53 48° ENE 16:41:45 10° SSE
Cosmos 2369 Rocket 3.5 16:33:56 10° N 16:37:56 19° NE 16:41:55 10° E
ISS -0.7 16:36:35 10° W 16:38:59 18° SW 16:41:23 10° S
Cosmos 1908 Rocket 4.0 16:37:20 10° N 16:41:29 39° ENE 16:45:34 10° SE
Cosmos 1743 4.1 16:42:18 10° NNE 16:45:05 19° ENE 16:47:51 10° ESE
Okean 1-7 4.3 16:42:40 10° SE 16:46:03 22° E 16:49:28 10° NE
BREEZE-M DEB (TANK) 4.5 16:43:24 10° W 16:46:05 25° SW 16:48:00 10° SSE
SL-16 R/B 3.2 16:41:35 10° SSE 16:46:17 28° ESE 16:51:02 10° NE
Lacrosse 5 rocket 1.7 16:42:08 10° WSW 16:46:23 58° NNW 16:50:16 11° NE
COSMO-SKYMED 1 4.3 16:47:07 10° NE 16:49:25 14° E 16:51:50 10° ESE
CORIOLIS 4.3 16:45:32 10° SE 16:50:48 52° ENE 16:56:06 10° N
Okean-O 3.3 16:47:06 10° SE 16:51:03 33° ENE 16:55:02 10° N
SL-4 R/B 2.1 16:48:13 10° W 16:51:53 56° N 16:55:22 13° ENE
Cosmos 1689 Rocket 2.9 16:49:51 10° N 16:52:50 52° WNW 16:55:46 10° SSW
STARLINK-52 3.9 16:49:46 10° SW 16:53:06 42° SE 16:55:56 13° ENE
STARLINK-60 3.2 16:50:06 10° SW 16:53:27 66° SSE 16:56:14 14° ENE
Cosmos 2237 Rocket 2.2 16:48:37 10° SSW 16:54:18 76° ESE 17:00:00 10° NNE
YAOGAN 1 4.0 16:53:25 10° E 16:56:07 16° ENE 16:58:50 10° NNE
BREEZE-M R/B 3.1 16:50:05 10° W 16:56:43 80° N 16:59:47 13° E
USA 215 3.4 16:51:47 10° ENE 16:58:14 72° SE 17:04:46 10° SW
Cosmos 1812 2.8 16:54:56 10° S 16:58:48 82° W 17:02:42 10° N
Cosmos 2322 Rocket 4.4 16:55:44 10° WNW 16:58:52 15° NNW 17:02:00 10° N
Cosmos 2333 Rocket 3.2 16:55:00 10° SW 17:00:30 45° NW 17:06:03 10° NNE
Aureole 1 Rocket 2.8 16:58:09 10° S 17:00:59 38° ESE 17:03:35 14° NE
STARLINK-29 3.6 16:57:45 10° SW 17:01:12 53° SSE 17:03:47 16° ENE
Cosmos 1733 Rocket 3.9 16:57:52 10° NNW 17:02:11 55° W 17:06:29 10° S
Cosmos 1500 4.0 16:58:36 10° NNW 17:02:17 55° W 17:05:56 10° S
Cosmos 2219 Rocket 3.2 16:57:11 10° SW 17:02:32 44° NW 17:07:57 10° NNE
Cosmos 1943 Rocket 3.0 16:59:51 10° NNW 17:04:47 30° NE 17:09:39 10° ESE
COBE Rocket 3.9 17:00:14 10° NNE 17:04:49 53° E 17:09:26 10° S
Nadezhda 4 Rocket 4.0 17:00:55 10° S 17:07:15 84° E 17:13:35 10° N
SL-16 R/B 4.5 17:07:22 10° NW 17:09:43 12° NNW 17:12:03 10° N
Cosmos 921 Rocket 3.0 17:06:48 10° NNW 17:11:03 57° ENE 17:15:20 10° SSE
CZ-4 R/B 2.3 17:10:35 10° ESE 17:13:44 24° ENE 17:16:53 10° N
Cosmos 1174 4.5 17:11:15 10° SSW 17:15:57 45° ESE 17:18:27 20° ENE
Cosmos 1553 Rocket 4.5 17:10:24 10° N 17:16:20 39° ENE 17:22:17 10° SE
CZ-4B R/B 4.1 17:16:20 10° NNW 17:18:49 18° WNW 17:21:18 10° WSW
AQUARIUS 4.2 17:16:49 10° SSE 17:21:18 83° WSW 17:25:50 10° NNW
CSL-04 Rocket 4.3 17:16:52 10° ESE 17:21:29 32° ENE 17:26:09 10° N
NOSS 0 Rocket 4.4 17:18:01 10° SW 17:24:09 61° NW 17:30:23 10° NNE
Cosmos 1980 4.1 17:20:37 10° SW 17:26:13 63° WNW 17:31:52 10° NNE
BREEZE-M DEB (TANK) 2.7 17:23:09 10° W 17:28:06 55° S 17:29:56 20° ESE
Cosmos 2026 Rocket 4.0 17:22:45 10° S 17:28:40 58° E 17:34:36 10° NNE
Cosmos 1441 Rocket 3.1 17:25:55 10° NNW 17:29:45 87° ENE 17:33:30 10° SSE
Cosmos 1140 Rocket 4.0 17:25:41 10° SSE 17:30:21 37° ESE 17:32:58 22° NE
Cosmos 1975 3.3 17:27:22 10° N 17:31:05 36° ENE 17:34:48 10° SE
SMAP 3.6 17:26:55 10° S 17:31:31 62° WSW 17:36:10 10° NNW
H-2A R/B 3.3 17:28:02 10° S 17:31:41 59° W 17:35:20 10° NNW
NOSS 3-1 (C) 4.3 17:25:05 10° NW 17:31:54 45° NE 17:38:00 17° E
Envisat 2.9 17:27:32 10° SSE 17:32:36 74° ENE 17:37:41 10° N
USA 267 3.5 17:27:02 10° SE 17:33:34 71° SW 17:40:07 10° WNW
Cosmos 2297 3.8 17:29:44 10° NNW 17:35:27 79° WSW 17:41:06 10° SSE
Cosmos 1782 Rocket 3.4 17:32:17 10° N 17:36:39 79° E 17:40:59 10° SSE
SKYMED 2 4.0 17:35:47 23° NE 17:37:57 40° E 17:42:03 10° SSE
STARLINK-67 3.1 17:37:11 10° WNW 17:39:48 42° N 17:39:48 42° N
Cosmos 407 Rocket 3.5 17:36:40 10° S 17:41:48 65° ESE 17:45:31 19° NNE
CSL-04 Debris 4.4 17:36:39 10° SE 17:41:50 46° ENE 17:47:00 10° N
USA 229 DEB 4.1 17:35:26 10° NW 17:42:21 49° NE 17:47:14 21° ESE
USA 229 4.1 17:35:33 10° NW 17:42:27 49° NE 17:47:15 21° ESE
Cosmos 1666 4.0 17:42:42 10° NNW 17:46:15 41° W 17:49:45 10° SSW
NOAA 12 4.3 17:41:03 10° S 17:46:21 75° WSW 17:51:39 10° NNW
NOSS 3-1 (A) 4.4 17:40:55 10° NW 17:47:37 42° NNE 17:51:32 26° E
Cosmos 1417 Rocket 4.4 17:42:10 10° N 17:48:14 60° ENE 17:54:18 10° SSE
Okean 2 Rocket 3.2 17:44:03 10° N 17:48:24 48° ENE 17:52:47 10° SSE
Cosmos 1703 Rocket 3.7 17:44:47 10° SSW 17:49:16 76° WNW 17:53:46 10° N
STARLINK-46 3.9 17:48:03 10° WNW 17:49:58 28° NNW 17:49:58 28° NNW
Sich 1 Rocket 3.4 17:47:39 10° N 17:52:05 86° ENE 17:56:28 10° S
Cosmos 2221 Rocket 3.8 17:48:53 10° SSE 17:53:08 45° E 17:54:06 39° ENE
Abrixas rocket 4.1 17:53:08 10° SSW 17:54:41 17° SSE 17:54:41 17° SSE
FALCON 9 DEB 3.2 17:56:09 10° WSW 17:59:38 64° NNW 17:59:57 60° NNE
Meteor 2-9 Rocket 4.2 17:56:37 10° N 18:02:31 69° ENE 18:08:16 10° SSE
YAOGAN 6 2.8 18:02:22 10° S 18:05:54 71° WSW 18:09:31 10° NNW
USA 116 4.5 18:04:27 33° NE 18:06:32 54° E 18:11:25 10° S
NOAA 11 4.2 18:02:20 10° SSE 18:07:41 58° ENE 18:13:05 10° N
SeaSat 1 4.1 18:12:56 19° NNE 18:12:56 19° NNE 18:14:56 10° N
Cosmos 1943 4.4 18:07:20 10° SSE 18:10:30 25° SE 18:10:30 25° SE
Meteor 1-18 Rocket 4.2 18:07:40 10° S 18:13:22 88° W 18:18:30 13° NNE
Ariane Rocket 4.2 18:18:02 27° NNE 18:18:02 27° NNE 18:20:33 10° N
Cosmos 1867 4.1 18:11:56 10° NW 18:17:18 58° WSW 18:22:37 10° SSE
Cosmos 1655 Rocket 3.9 18:11:39 10° S 18:17:53 67° E 18:23:34 13° NNE
Cosmos 1743 4.0 18:17:24 10° NNW 18:21:04 40° W 18:24:42 10° SSW
Cosmos 2369 Rocket 2.0 18:17:14 10° NNW 18:22:54 78° ENE 18:25:39 32° SE
Okean 1-7 4.3 18:19:16 10° SW 18:23:23 40° WNW 18:27:21 11° N
ATLAS 2AS CENTAUR R/B 4.3 18:18:40 10° WNW 18:25:23 28° N 18:28:36 22° NNE
COSMO-SKYMED 1 2.8 18:24:20 35° N 18:26:04 68° WNW 18:30:22 10° SSW
Lacrosse 5 rocket 2.8 18:22:37 10° WNW 18:25:54 26° NNW 18:25:54 26° NNW
Cosmos 1656 Rocket 4.3 18:22:16 10° NNW 18:26:09 36° NNE 18:26:09 36° NNE
Meteor 2-13 Rocket 4.3 18:21:56 10° S 18:27:58 77° E 18:32:11 21° NNE
Cosmos 1300 Rocket 4.3 18:25:04 10° N 18:34:41 - S 18:27:54 40° N
SL-16 R/B 2.7 18:24:29 10° SW 18:30:04 56° WNW 18:33:05 27° N
STARLINK-52 4.4 18:26:51 10° W 18:29:24 40° WNW 18:29:24 40° WNW
Lacrosse 5 3.0 18:26:24 10° SSW 18:29:46 30° SSE 18:29:46 30° SSE
YAOGAN 1 2.8 18:27:26 10° S 18:31:44 67° WSW 18:36:04 10° NNW
SL-4 R/B 2.5 18:27:54 10° WNW 18:30:59 53° NW 18:30:59 53° NW
Cosmos 1603 3.8 18:31:33 10° S 18:36:35 56° SE 18:36:35 56° SE
Cosmos 2237 Rocket 4.0 18:34:21 10° W 18:38:59 25° NW 18:42:35 14° N
Cosmos 676 Rocket 4.0 18:35:42 10° SSW 18:40:53 78° WNW 18:41:40 63° N
USA 215 3.6 18:39:08 41° NNE 18:41:10 55° NNW 18:47:30 10° W
Cosmos 1954 Rocket 4.1 18:42:32 10° SSW 18:47:42 73° WNW 18:48:10 67° NNW
CZ-4 R/B 3.0 18:45:10 10° SSW 18:48:40 32° W 18:52:09 10° NNW
Cosmos 1943 Rocket 2.6 18:43:22 10° NW 18:48:55 59° WSW 18:52:55 19° S
S3M 4.3 18:44:34 10° NNW 18:50:41 63° W 18:56:43 10° S
IRIDIUM 104 4.4 18:48:10 10° S 18:53:04 75° SW 18:53:04 75° SW
Meteor 2-4 Rocket 3.7 18:50:28 10° SSW 18:56:21 81° WNW 18:57:05 68° N
Cosmos 2266 Rocket 3.9 18:51:45 10° S 18:58:11 89° E 18:59:29 60° N
CZ-4C R/B 3.3 18:58:51 10° SSW 19:01:22 30° SSW 19:01:22 30° SSW
Cosmos 2344 4.3 18:58:24 10° NW 19:07:55 86° NE 19:13:45 38° SE
NOSS 3-1 (C) 4.2 19:15:53 10° NW 19:23:19 68° SW 19:25:30 50° S
USA 229 DEB 4.3 19:26:30 10° NW 19:33:33 56° WSW 19:34:44 51° SSW
USA 229 4.3 19:26:36 10° NW 19:33:39 57° WSW 19:34:46 52° SSW
NOSS 3-1 (A) 4.1 19:31:45 10° NW 19:39:02 76° WSW 19:39:02 76° WSW
ATLAS 2AS CENTAUR R/B 4.5 20:11:53 10° NW 20:16:01 26° NNW 20:16:01 26° NNW
